Time,TemperatureF,DewpointF,PressureIn,WindDirection,WindDirectionDegrees,WindSpeedMPH,WindSpeedGustMPH,Humidity,HourlyPrecipIn,Conditions,Clouds,dailyrainin,SoftwareType,DateUTC
2013-06-11 00:00:00,68.7,68.7,29.87,WNW,283,0.0,1.0,100,0.00,,---,1.45,VWS V15.00,2013-06-11 04:00:00,
2013-06-11 00:13:00,68.5,68.5,29.87,WNW,283,0.0,0.0,100,0.00,,---,0.00,VWS V14.01,2013-06-11 04:13:00,
2013-06-11 00:28:00,68.3,68.3,29.87,WNW,283,0.0,0.0,100,0.00,,---,0.00,VWS V14.01,2013-06-11 04:28:00,
2013-06-11 00:30:00,68.2,68.2,29.87,WNW,283,0.0,0.0,100,0.00,,---,0.00,VWS V14.01,2013-06-11 04:30:00,
2013-06-11 00:43:00,68.1,68.1,29.87,WNW,283,0.0,0.0,100,0.00,,---,0.00,VWS V14.01,2013-06-11 04:43:00,
2013-06-11 00:58:00,68.0,68.0,29.87,WNW,283,0.0,0.0,100,0.00,,---,0.00,VWS V14.01,2013-06-11 04:58:00,
2013-06-11 01:00:00,68.0,68.0,29.87,WNW,283,0.0,0.0,100,0.00,,---,0.00,VWS V15.00,2013-06-11 05:00:00,
2013-06-11 01:13:00,68.1,68.1,29.86,WNW,283,0.0,0.0,100,0.00,,---,0.00,VWS V14.01,2013-06-11 05:13:00,
2013-06-11 01:28:00,68.0,68.0,29.86,WNW,283,0.0,0.0,100,0.00,,---,0.00,VWS V14.01,2013-06-11 05:28:00,
2013-06-11 01:30:00,67.9,67.9,29.86,WNW,283,0.0,0.0,100,0.00,,---,0.00,VWS V15.00,2013-06-11 05:30:00,
2013-06-11 01:43:00,67.9,67.9,29.86,West,281,0.0,1.0,100,0.00,,---,0.00,VWS V14.01,2013-06-11 05:43:00,
2013-06-11 01:58:00,68.0,68.0,29.85,West,263,0.0,3.0,100,0.00,,---,0.00,VWS V14.01,2013-06-11 05:58:00,
2013-06-11 02:00:00,68.0,68.0,29.85,West,263,0.0,3.0,100,0.00,,---,0.00,VWS V15.00,2013-06-11 06:00:00,
2013-06-11 02:13:00,68.0,68.0,29.85,West,263,0.0,2.0,100,0.00,,---,0.00,VWS V14.01,2013-06-11 06:13:00,
2013-06-11 02:28:00,67.9,67.9,29.85,WNW,284,0.0,2.0,100,0.00,,---,0.00,VWS V14.01,2013-06-11 06:28:00,
2013-06-11 02:30:00,67.9,67.9,29.85,WNW,283,0.0,2.0,100,0.00,,---,0.00,VWS V15.00,2013-06-11 06:30:00,
2013-06-11 02:43:00,67.8,67.8,29.85,WNW,284,0.0,1.0,100,0.00,,---,0.00,VWS V14.01,2013-06-11 06:43:00,
2013-06-11 02:58:00,67.6,67.6,29.85,WNW,283,0.0,1.0,100,0.00,,---,0.00,VWS V14.01,2013-06-11 06:58:00,
2013-06-11 03:00:00,67.6,67.6,29.85,WNW,283,0.0,1.0,100,0.00,,---,0.00,VWS V15.00,2013-06-11 07:00:00,
2013-06-11 03:13:00,67.5,67.5,29.85,WNW,283,0.0,1.0,100,0.00,,---,0.00,VWS V14.01,2013-06-11 07:13:00,
2013-06-11 03:28:00,67.3,67.3,29.85,West,263,0.0,2.0,100,0.00,,---,0.00,VWS V14.01,2013-06-11 07:28:00,
2013-06-11 03:30:00,67.3,67.3,29.85,West,263,0.0,2.0,100,0.00,,---,0.00,VWS V15.00,2013-06-11 07:30:00,
2013-06-11 03:43:00,67.2,67.2,29.85,West,263,0.0,1.0,100,0.00,,---,0.00,VWS V14.01,2013-06-11 07:43:00,
2013-06-11 03:58:00,67.1,67.1,29.85,West,263,1.0,1.0,100,0.00,,---,0.00,VWS V14.01,2013-06-11 07:58:00,
2013-06-11 04:00:00,67.1,67.1,29.85,West,263,0.0,1.0,100,0.00,,---,0.00,VWS V15.00,2013-06-11 08:00:00,
2013-06-11 04:13:00,67.1,67.1,29.84,West,264,0.0,2.0,100,0.00,,---,0.00,VWS V14.01,2013-06-11 08:13:00,
2013-06-11 04:28:00,67.0,67.0,29.85,West,259,0.0,3.0,100,0.00,,---,0.00,VWS V14.01,2013-06-11 08:28:00,
2013-06-11 04:30:00,67.0,67.0,29.85,West,259,0.0,3.0,100,0.00,,---,0.00,VWS V15.00,2013-06-11 08:30:00,
2013-06-11 04:43:00,66.9,66.9,29.86,West,259,0.0,3.0,100,0.00,,---,0.00,VWS V14.01,2013-06-11 08:43:00,
2013-06-11 04:58:00,66.8,66.8,29.85,West,259,0.0,3.0,100,0.00,,---,0.00,VWS V14.01,2013-06-11 08:58:00,
2013-06-11 05:00:00,66.7,66.7,29.85,West,259,0.0,3.0,100,0.00,,---,0.00,VWS V15.00,2013-06-11 09:00:00,
2013-06-11 05:13:00,66.6,66.6,29.85,West,259,0.0,0.0,100,0.00,,---,0.00,VWS V14.01,2013-06-11 09:13:00,
2013-06-11 05:28:00,66.6,66.6,29.85,West,274,0.0,1.0,100,0.00,,---,0.00,VWS V14.01,2013-06-11 09:28:00,
2013-06-11 05:30:00,66.6,66.6,29.85,West,274,0.0,1.0,100,0.00,,---,0.00,VWS V15.00,2013-06-11 09:30:00,
2013-06-11 05:43:00,66.7,66.7,29.85,West,273,0.0,0.0,100,0.00,,---,0.00,VWS V14.01,2013-06-11 09:43:00,
2013-06-11 05:58:00,66.7,66.7,29.86,West,273,0.0,0.0,100,0.00,,---,0.00,VWS V14.01,2013-06-11 09:58:00,
2013-06-11 06:00:00,66.7,66.7,29.86,West,274,0.0,0.0,100,0.00,,---,0.00,VWS V15.00,2013-06-11 10:00:00,
2013-06-11 06:14:00,66.7,66.7,29.86,West,273,0.0,0.0,100,0.00,,---,0.00,VWS V14.01,2013-06-11 10:14:00,
2013-06-11 06:29:00,66.9,66.9,29.86,West,274,0.0,0.0,100,0.00,,---,0.00,VWS V14.01,2013-06-11 10:29:00,
2013-06-11 06:30:00,66.9,66.9,29.86,West,274,0.0,0.0,100,0.00,,---,0.00,VWS V15.00,2013-06-11 10:30:00,
2013-06-11 06:44:00,67.0,67.0,29.87,West,274,0.0,1.0,100,0.00,,---,0.00,VWS V14.01,2013-06-11 10:44:00,
2013-06-11 06:59:00,67.1,67.1,29.87,West,273,0.0,2.0,100,0.00,,---,0.00,VWS V14.01,2013-06-11 10:59:00,
2013-06-11 07:00:00,67.1,67.1,29.87,West,274,0.0,2.0,100,0.00,,---,0.00,VWS V15.00,2013-06-11 11:00:00,
2013-06-11 07:14:00,67.3,67.3,29.87,West,273,0.0,0.0,100,0.00,,---,0.00,VWS V14.01,2013-06-11 11:14:00,
2013-06-11 07:29:00,67.6,67.6,29.87,West,274,0.0,0.0,100,0.00,,---,0.00,VWS V14.01,2013-06-11 11:29:00,
2013-06-11 07:30:00,67.6,67.6,29.87,West,274,0.0,0.0,100,0.00,,---,0.00,VWS V15.00,2013-06-11 11:30:00,
2013-06-11 07:44:00,68.0,68.0,29.88,West,274,0.0,2.0,100,0.00,,---,0.00,VWS V14.01,2013-06-11 11:44:00,
2013-06-11 07:59:00,68.5,68.5,29.87,West,274,0.0,2.0,100,0.00,,---,0.00,VWS V14.01,2013-06-11 11:59:00,
2013-06-11 08:00:00,68.5,68.5,29.87,West,274,0.0,2.0,100,0.00,,---,0.00,VWS V15.00,2013-06-11 12:00:00,
2013-06-11 08:14:00,69.0,69.0,29.87,West,274,1.0,2.0,100,0.00,,---,0.00,VWS V14.01,2013-06-11 12:14:00,
2013-06-11 08:29:00,69.2,69.2,29.87,West,274,0.0,2.0,100,0.00,,---,0.00,VWS V14.01,2013-06-11 12:29:00,
2013-06-11 08:30:00,69.3,69.3,29.87,West,273,0.0,2.0,100,0.00,,---,0.00,VWS V15.00,2013-06-11 12:30:00,
2013-06-11 08:44:00,69.6,69.6,29.87,WSW,257,0.0,2.0,100,0.00,,---,0.00,VWS V14.01,2013-06-11 12:44:00,
2013-06-11 08:59:00,70.5,70.5,29.87,WSW,257,0.0,2.0,100,0.00,,---,0.00,VWS V14.01,2013-06-11 12:59:00,
2013-06-11 09:00:00,70.6,70.3,29.87,WSW,257,0.0,2.0,99,0.00,,---,0.00,VWS V15.00,2013-06-11 13:00:00,
2013-06-11 09:14:00,72.0,71.1,29.87,West,262,0.0,4.0,97,0.00,,---,0.00,VWS V14.01,2013-06-11 13:14:00,
2013-06-11 09:29:00,73.8,71.7,29.87,West,261,0.0,4.0,93,0.00,,---,0.00,VWS V14.01,2013-06-11 13:29:00,
2013-06-11 09:30:00,74.0,71.8,29.86,West,262,0.0,4.0,93,0.00,,---,0.00,VWS V15.00,2013-06-11 13:30:00,
2013-06-11 09:44:00,75.3,71.8,29.86,WSW,250,0.0,2.0,89,0.00,,---,0.00,VWS V14.01,2013-06-11 13:44:00,
2013-06-11 09:59:00,76.6,71.4,29.85,SW,232,0.0,2.0,84,0.00,,---,0.00,VWS V14.01,2013-06-11 13:59:00,
2013-06-11 10:00:00,76.7,71.5,29.85,SW,232,0.0,2.0,84,0.00,,---,0.00,VWS V15.00,2013-06-11 14:00:00,
2013-06-11 10:14:00,77.6,70.6,29.85,WSW,253,0.0,2.0,79,0.00,,---,0.00,VWS V14.01,2013-06-11 14:14:00,
2013-06-11 10:29:00,78.7,71.3,29.85,West,259,0.0,2.0,78,0.00,,---,0.00,VWS V14.01,2013-06-11 14:29:00,
2013-06-11 10:30:00,78.7,71.3,29.85,West,259,1.0,2.0,78,0.00,,---,0.00,VWS V15.00,2013-06-11 14:30:00,
2013-06-11 10:44:00,79.1,70.9,29.85,West,262,2.0,3.0,76,0.00,,---,0.00,VWS V14.01,2013-06-11 14:44:00,
2013-06-11 10:59:00,79.4,69.6,29.85,NE,41,0.0,3.0,72,0.00,,---,0.00,VWS V14.01,2013-06-11 14:59:00,
2013-06-11 11:00:00,79.4,70.0,29.85,NE,41,0.0,3.0,73,0.00,,---,0.00,VWS V15.00,2013-06-11 15:00:00,
2013-06-11 11:14:00,80.1,69.4,29.85,NNE,31,0.0,3.0,70,0.00,,---,0.00,VWS V14.01,2013-06-11 15:14:00,
2013-06-11 11:29:00,80.9,70.6,29.85,ESE,105,1.0,3.0,71,0.00,,---,0.00,VWS V14.01,2013-06-11 15:29:00,
2013-06-11 11:30:00,80.9,70.2,29.85,West,271,1.0,3.0,70,0.00,,---,0.00,VWS V15.00,2013-06-11 15:30:00,
2013-06-11 11:44:00,81.1,70.4,29.85,West,280,0.0,4.0,70,0.00,,---,0.00,VWS V14.01,2013-06-11 15:44:00,
2013-06-11 11:59:00,81.3,69.3,29.85,ENE,60,3.0,5.0,67,0.00,,---,0.00,VWS V14.01,2013-06-11 15:59:00,
2013-06-11 12:00:00,81.2,69.6,29.85,ENE,59,0.0,5.0,68,0.00,,---,0.00,VWS V15.00,2013-06-11 16:00:00,
2013-06-11 12:14:00,81.6,70.4,29.85,NW,318,0.0,5.0,69,0.00,,---,0.00,VWS V14.01,2013-06-11 16:14:00,
2013-06-11 12:29:00,82.1,70.1,29.85,West,277,0.0,5.0,67,0.00,,---,0.00,VWS V14.01,2013-06-11 16:29:00,
2013-06-11 12:30:00,82.1,69.6,29.85,ENE,61,1.0,5.0,66,0.00,,---,0.00,VWS V15.00,2013-06-11 16:30:00,
2013-06-11 12:44:00,81.7,69.7,29.85,WNW,301,0.0,5.0,67,0.00,,---,0.00,VWS V14.01,2013-06-11 16:44:00,
2013-06-11 12:59:00,82.2,70.2,29.85,North,355,1.0,5.0,67,0.00,,---,0.00,VWS V14.01,2013-06-11 16:59:00,
2013-06-11 13:00:00,82.1,69.6,29.85,East,86,3.0,5.0,66,0.00,,---,0.00,VWS V15.00,2013-06-11 17:00:00,
2013-06-11 13:14:00,81.6,69.6,29.85,WNW,290,3.0,4.0,67,0.00,,---,0.00,VWS V14.01,2013-06-11 17:14:00,
2013-06-11 13:29:00,81.1,69.6,29.85,NNE,24,0.0,5.0,68,0.00,,---,0.00,VWS V14.01,2013-06-11 17:29:00,
2013-06-11 13:30:00,81.1,69.6,29.85,WNW,283,2.0,5.0,68,0.00,,---,0.00,VWS V15.00,2013-06-11 17:30:00,
2013-06-11 13:44:00,81.3,69.7,29.84,WSW,244,0.0,2.0,68,0.00,,---,0.00,VWS V14.01,2013-06-11 17:44:00,
2013-06-11 13:59:00,81.6,69.6,29.84,West,271,0.0,3.0,67,0.00,,---,0.00,VWS V14.01,2013-06-11 17:59:00,
2013-06-11 14:00:00,81.6,69.2,29.84,West,271,0.0,3.0,66,0.00,,---,0.00,VWS V15.00,2013-06-11 18:00:00,
2013-06-11 14:14:00,82.6,70.5,29.83,East,91,0.0,5.0,67,0.00,,---,0.00,VWS V14.01,2013-06-11 18:14:00,
2013-06-11 14:29:00,83.6,70.6,29.83,East,80,0.0,5.0,65,0.00,,---,0.00,VWS V14.01,2013-06-11 18:29:00,
2013-06-11 14:30:00,83.6,71.1,29.83,ESE,122,0.0,5.0,66,0.00,,---,0.00,VWS V15.00,2013-06-11 18:30:00,
2013-06-11 14:44:00,83.4,70.4,29.83,NNE,33,0.0,3.0,65,0.00,,---,0.00,VWS V14.01,2013-06-11 18:44:00,
2013-06-11 14:59:00,82.1,70.1,29.83,NW,323,0.0,3.0,67,0.00,,---,0.00,VWS V14.01,2013-06-11 18:59:00,
2013-06-11 15:00:00,82.1,70.5,29.83,NNW,327,0.0,3.0,68,0.00,,---,0.00,VWS V15.00,2013-06-11 19:00:00,
2013-06-11 15:14:00,82.4,69.5,29.83,ENE,69,0.0,4.0,65,0.00,,---,0.00,VWS V14.01,2013-06-11 19:14:00,
2013-06-11 15:29:00,83.2,71.1,29.83,NW,322,0.0,5.0,67,0.00,,---,0.00,VWS V14.01,2013-06-11 19:29:00,
2013-06-11 15:30:00,83.2,71.1,29.83,NW,323,0.0,5.0,67,0.00,,---,0.00,VWS V15.00,2013-06-11 19:30:00,
2013-06-11 15:44:00,82.6,71.0,29.82,East,92,0.0,5.0,68,0.00,,---,0.00,VWS V14.01,2013-06-11 19:44:00,
2013-06-11 15:59:00,82.6,71.0,29.82,North,355,0.0,5.0,68,0.00,,---,0.00,VWS V14.01,2013-06-11 19:59:00,
2013-06-11 16:00:00,82.6,71.0,29.82,NNE,32,0.0,5.0,68,0.00,,---,0.00,VWS V15.00,2013-06-11 20:00:00,
2013-06-11 16:14:00,82.7,71.1,29.82,NW,316,0.0,2.0,68,0.00,,---,0.00,VWS V14.01,2013-06-11 20:14:00,
2013-06-11 16:29:00,82.5,70.0,29.82,ENE,69,0.0,5.0,66,0.00,,---,0.00,VWS V14.01,2013-06-11 20:29:00,
2013-06-11 16:30:00,82.5,70.0,29.82,ENE,69,0.0,5.0,66,0.00,,---,0.00,VWS V15.00,2013-06-11 20:30:00,
2013-06-11 16:44:00,81.9,70.3,29.82,WSW,250,0.0,2.0,68,0.00,,---,0.00,VWS V14.01,2013-06-11 20:44:00,
2013-06-11 16:59:00,81.4,69.8,29.82,South,188,0.0,3.0,68,0.00,,---,0.00,VWS V14.01,2013-06-11 20:59:00,
2013-06-11 17:00:00,81.4,69.8,29.82,South,188,0.0,3.0,68,0.00,,---,0.00,VWS V15.00,2013-06-11 21:00:00,
2013-06-11 17:14:00,81.3,69.7,29.82,West,263,0.0,4.0,68,0.00,,---,0.00,VWS V14.01,2013-06-11 21:14:00,
2013-06-11 17:29:00,81.3,69.3,29.82,NNE,13,0.0,4.0,67,0.00,,---,0.00,VWS V14.01,2013-06-11 21:29:00,
2013-06-11 17:30:00,81.3,68.9,29.82,West,281,2.0,5.0,66,0.00,,---,0.00,VWS V15.00,2013-06-11 21:30:00,
2013-06-11 17:44:00,81.1,69.1,29.83,NW,318,0.0,4.0,67,0.00,,---,0.00,VWS V14.01,2013-06-11 21:44:00,
2013-06-11 17:59:00,80.8,69.3,29.82,NE,41,0.0,4.0,68,0.00,,---,0.00,VWS V14.01,2013-06-11 21:59:00,
2013-06-11 18:00:00,80.8,69.3,29.83,NE,42,0.0,4.0,68,0.00,,---,0.00,VWS V15.00,2013-06-11 22:00:00,
2013-06-11 18:14:00,80.3,68.8,29.82,NE,41,1.0,3.0,68,0.00,,---,0.00,VWS V14.01,2013-06-11 22:14:00,
2013-06-11 18:29:00,80.0,69.3,29.82,East,87,0.0,3.0,70,0.00,,---,0.00,VWS V14.01,2013-06-11 22:29:00,
2013-06-11 18:30:00,80.1,69.0,29.82,East,88,0.0,3.0,69,0.00,,---,0.00,VWS V15.00,2013-06-11 22:30:00,
2013-06-11 18:45:00,80.3,69.2,29.82,ENE,77,1.0,3.0,69,0.00,,---,0.00,VWS V14.01,2013-06-11 22:45:00,
2013-06-11 19:00:00,80.3,69.6,29.83,WNW,295,0.0,3.0,70,0.00,,---,0.00,VWS V14.01,2013-06-11 23:00:00,
2013-06-11 19:15:00,79.9,69.2,29.84,NNE,31,0.0,3.0,70,0.00,,---,0.00,VWS V14.01,2013-06-11 23:15:00,
2013-06-11 19:30:00,79.5,68.9,29.85,ENE,71,0.0,4.0,70,0.00,,---,0.00,VWS V14.01,2013-06-11 23:30:00,
2013-06-11 19:45:00,79.2,67.7,29.85,ESE,105,0.0,6.0,68,0.00,,---,0.00,VWS V14.01,2013-06-11 23:45:00,
2013-06-11 20:00:00,78.7,68.1,29.85,ESE,105,0.0,6.0,70,0.00,,---,0.00,VWS V14.01,2013-06-12 00:00:00,
2013-06-11 20:15:00,78.0,67.8,29.85,North,355,0.0,3.0,71,0.00,,---,0.00,VWS V14.01,2013-06-12 00:15:00,
2013-06-11 20:30:00,77.4,67.3,29.85,NNE,16,0.0,3.0,71,0.00,,---,0.00,VWS V14.01,2013-06-12 00:30:00,
2013-06-11 20:45:00,76.7,67.0,29.85,NNE,15,0.0,1.0,72,0.00,,---,0.00,VWS V14.01,2013-06-12 00:45:00,
2013-06-11 21:00:00,76.0,67.1,29.85,NNE,16,0.0,1.0,74,0.00,,---,0.00,VWS V14.01,2013-06-12 01:00:00,
2013-06-11 21:15:00,75.2,67.1,29.86,NNE,15,0.0,0.0,76,0.00,,---,0.00,VWS V14.01,2013-06-12 01:15:00,
2013-06-11 21:30:00,74.6,67.3,29.87,NNE,16,0.0,0.0,78,0.00,,---,0.00,VWS V14.01,2013-06-12 01:30:00,
2013-06-11 21:45:00,74.0,66.7,29.87,NNE,15,0.0,0.0,78,0.00,,---,0.00,VWS V14.01,2013-06-12 01:45:00,
2013-06-11 22:00:00,73.6,67.1,29.87,NNE,16,0.0,0.0,80,0.00,,---,0.00,VWS V14.01,2013-06-12 02:00:00,
2013-06-11 22:15:00,73.2,67.4,29.88,NNE,16,0.0,0.0,82,0.00,,---,0.00,VWS V14.01,2013-06-12 02:15:00,
2013-06-11 22:30:00,72.7,67.6,29.88,NNE,15,0.0,0.0,84,0.00,,---,0.00,VWS V14.01,2013-06-12 02:30:00,
2013-06-11 22:45:00,72.2,66.8,29.89,NNE,15,0.0,0.0,83,0.00,,---,0.00,VWS V14.01,2013-06-12 02:45:00,
2013-06-11 23:00:00,72.0,66.9,29.89,NNE,16,0.0,0.0,84,0.00,,---,0.00,VWS V14.01,2013-06-12 03:00:00,
2013-06-11 23:15:00,71.9,67.2,29.89,NNE,16,0.0,0.0,85,0.00,,---,0.00,VWS V14.01,2013-06-12 03:15:00,
2013-06-11 23:30:00,71.9,67.2,29.89,NNE,15,0.0,0.0,85,0.00,,---,0.00,VWS V14.01,2013-06-12 03:30:00,
2013-06-11 23:45:00,72.1,67.0,29.90,NNE,16,0.0,0.0,84,0.00,,---,0.00,VWS V14.01,2013-06-12 03:45:00,